AirNav   Air Wisconsin pilot careers
 
 576 users online  

5J5 Holly Hill Airport
Holly Hill, South Carolina, USA

GOING TO HOLLY HILL?


FAA INFORMATION EFFECTIVE 06 DECEMBER 2018

Location

FAA Identifier: 5J5
Lat/Long: 33-18-01.5000N / 080-23-39.6000W
33-18.025000N / 080-23.660000W
33.3004167 / -80.3943333
(estimated)
Elevation: 96 ft. / 29 m (estimated)
Variation: 05W (1985)
From city: 2 miles SE of HOLLY HILL, SC
Time zone: UTC -5 (UTC -4 during Daylight Saving Time)
Zip code: 29059

Airport Operations

Airport use: Open to the public
Control tower: no
ARTCC: JACKSONVILLE CENTER
FSS: ANDERSON FLIGHT SERVICE STATION
NOTAMs facility: AND (NOTAM-D service available)
Attendance: UNATNDD
Wind indicator: yes
Segmented circle: no

Airport Communications

CTAF: 122.9
WX AWOS-3 at DYB (15 nm S): 119.575 (843-821-8403)
WX AWOS-3 at MKS (19 nm E): 119.175 (843-761-1486)
WX AWOS-3 at MNI (20 nm NE): 120.175 (803-478-6060)

Nearby radio navigation aids

VOR radial/distance  VOR name  Freq  Var
VANr171/10.8VANCE VORTAC110.4006W
CHSr329/30.2CHARLESTON VORTAC113.5005W

 
NDB name  Hdg/Dist  Freq  Var  ID
DORCHESTER COUNTY345/15.536507WDYB -.. -.-- -...
MANNING215/19.738106WMNI -- -. ..

Airport Services

Parking: tiedowns
Airframe service: NONE
Powerplant service: NONE
Bottled oxygen: NONE
Bulk oxygen: NONE

Runway Information

Runway 4/22

Dimensions: 2900 x 150 ft. / 884 x 46 m
Surface: turf, in good condition
RUNWAY 4  RUNWAY 22
Latitude: 33-17.849478N33-18.200223N
Longitude: 080-23.853050W080-23.465788W
Elevation: 94.0 ft.95.0 ft.
Traffic pattern: leftleft
Runway heading: 048 magnetic, 043 true228 magnetic, 223 true
Obstructions: 66 ft. tree, 541 ft. from runway, 101 ft. right of centerline, 8:1 slope to clear
ROAD AT END OF RUNWAY 4
79 ft. tree, 760 ft. from runway, 188 ft. right of centerline, 9:1 slope to clear

Airport Ownership and Management from official FAA records

Ownership: Publicly-owned
Owner: TOWN OF HOLLY HILL
PO BOX 1108
HOLLY HILL, SC 29059
Phone 803-496-3330
Manager: LAMAR DAY
8423 OLD STATE ROAD SUITE 1
HOLLY HILL, SC 29059
Phone (803) 378-5239

Airport Operational Statistics

Aircraft based on the field: 16
Single engine airplanes: 15
Ultralights: 1
    
Aircraft operations: avg 63/week *
76% local general aviation
24% transient general aviation
* for 12-month period ending 27 September 2017

Additional Remarks

FOR CD CTC CHARLESTON APCH AT 843-414-2832.

Instrument Procedures

There are no published instrument procedures at 5J5.

Some nearby airports with instrument procedures:

6J2 - St George Airport (9 nm SW)
KDYB - Summerville Airport (15 nm S)
KMKS - Berkeley County Airport (19 nm E)
KMNI - Santee Cooper Regional Airport (20 nm NE)
KOGB - Orangeburg Municipal Airport (25 nm W)
 
Loc | Ops | Rwys | IFR | FBO | Links
Com | Nav | Svcs | Stats | Notes


 
Area around 5J5 (Holly Hill Airport)
 
Road maps at: MapQuest Bing Google
 
Aerial photo
WARNING: Photo may not be current or correct
Aerial photo of 5J5 (Holly Hill Airport)
Do you have a better or more recent aerial photo of Holly Hill Airport that you would like to share? If so, please send us your photo.

 
Sectional chart

 
Airport distance calculator
Flying to Holly Hill Airport? Find the distance to fly.

From to 5J5

Sunrise and sunset
Times for 10-Dec-2018
 Local
(UTC-5)
 Zulu
(UTC)
Morning civil twilight06:4811:48
Sunrise07:1512:15
Sunset17:1322:13
Evening civil twilight17:4122:41

Current date and time
Zulu (UTC)  10-Dec-2018 12:24:37
Local (UTC-5)  10-Dec-2018 07:24:37
 
METAR
KDYB 
15nm S 
101155Z AUTO 31005KT 10SM OVC009 03/02 A3000 RMK AO1
KMKS 
19nm E 
101155Z AUTO 35003KT 10SM OVC007 04/04 A2998 RMK AO2
KMNI 
20nm NE 
101155Z AUTO 36005KT 7SM OVC005 02/02 A2999 RMK AO2
KOGB 
25nm NW 
101153Z AUTO 33004KT 10SM BKN010 OVC017 03/02 A3000 RMK AO2 SLP160 70037 T00330017 10033 20028 53015
KRBW 
26nm SW 
101155Z AUTO 00000KT 7SM OVC006 03/02 A3001 RMK AO2
KCHS 
30nm SE 
101156Z 33008KT 10SM BKN009 BKN015 OVC030 03/03 A2998 RMK AO2 RAE40DZB40E53 SLP153 P0000 60000 70039 T00280028 10039 20028 53019 $
TAF
KOGB 
25nm NW 
101139Z 1012/1112 34006KT P6SM BKN007 OVC011 TEMPO 1012/1015 4SM -DZ BR OVC007 FM101800 01007KT 5SM BR BKN008 OVC012 FM110300 36005KT P6SM SCT008 OVC015 FM110900 33004KT P6SM SCT007 BKN120
KCHS 
30nm SE 
101135Z 1012/1112 33007KT P6SM OVC007 TEMPO 1012/1015 4SM -DZ OVC006 FM101900 34009KT P6SM OVC010 FM110100 35005KT 6SM -DZ OVC009 FM111000 33005KT P6SM SCT008 BKN010
NOTAMs
Click for the latest NOTAMs
NOTAMs are issued by the DoD/FAA and will open in a separate window not controlled by AirNav.

 

 
 

Would you like to see your business listed on this page?

 If your business provides an interesting product or service to pilots, flight crews, aircraft, or users of the Holly Hill Airport, you should consider listing it here.  To start the listing process, click on the button below
 
Add a business
 

Other Pages about Holly Hill Airport

Update a link
 
Copyright © AirNav, LLC. All rights reserved. Privacy Policy  Contact